Volver al catálogo

SL-8 DEB

ActivoLEO
NORAD 23007·DEBRIS·🇷🇺 Russia

Lanzado Jun 16, 1993 desde Plesetsk Cosmodrome

Loading…

Próximos Pases (próximas 24 horas)

TLE

ActualizadoSource: Space-Track

Época: Sep 14, 2026, 09:31 UTC

1 23007U 93036C   26257.39670715  .00000655  00000-0  18093-3 0  9993
2 23007  74.0245 307.1341 0011452 241.4173 131.8714 14.48693045742990

Sigue SL-8 DEB en tiempo real con AllMySat

Download on the App Store